This is the latest recevied weather packets stored in our database for station/object OK3MS-5. If no packets are shown the sender has not sent any weather packets the latest 10 day(s).
| Time | Temp. | Humidity | Pressure | Rain* | Wind** | Luminosity | Snow |
|---|---|---|---|---|---|---|---|
| 1787917802 | 27.78° C | 47% | 1008.8 hPa | 0 mm | - | 507 W/m² | - |
| 1787917503 | 27.22° C | 48% | 1008.7 hPa | 0 mm | - | 591 W/m² | - |
| 1787917205 | 27.22° C | 48% | 1008.9 hPa | 0 mm | - | 587 W/m² | - |
| 1787916904 | 27.22° C | 48% | 1008.9 hPa | 0 mm | - | 562 W/m² | - |
| 1787916606 | 27.22° C | 48% | 1009.1 hPa | 0 mm | - | 546 W/m² | - |
| 1787916306 | 26.67° C | 48% | 1009 hPa | 0 mm | - | 541 W/m² | - |
| 1787916004 | 26.67° C | 48% | 1009.2 hPa | 0 mm | - | 565 W/m² | - |
| 1787915705 | 27.22° C | 48% | 1009.1 hPa | 0 mm | - | 531 W/m² | - |
| 1787915403 | 26.67° C | 48% | 1009.3 hPa | 0 mm | - | 529 W/m² | - |
| 1787915102 | 26.67° C | 49% | 1009.1 hPa | 0 mm | - | 692 W/m² | - |
| 1787914804 | 26.67° C | 49% | 1009.2 hPa | 0 mm | - | 560 W/m² | - |
| 1787914503 | 26.67° C | 48% | 1009.1 hPa | 0 mm | - | 597 W/m² | - |
| 1787914205 | 26.11° C | 49% | 1009.2 hPa | 0 mm | - | 638 W/m² | - |
| 1787913903 | 26.11° C | 49% | 1009.4 hPa | 0 mm | - | 622 W/m² | - |
| 1787913608 | 26.67° C | 49% | 1009.1 hPa | 0 mm | - | 624 W/m² | - |
| 1787913302 | 26.11° C | 50% | 1009 hPa | 0 mm | - | 616 W/m² | - |
| 1787913005 | 26.67° C | 48% | 1009 hPa | 0 mm | - | 616 W/m² | - |
| 1787912706 | 26.11° C | 50% | 1009.2 hPa | 0 mm | - | 613 W/m² | - |
| 1787912404 | 26.11° C | 49% | 1009.4 hPa | 0 mm | - | 613 W/m² | - |
| 1787912103 | 26.11° C | 50% | 1009.2 hPa | 0 mm | - | 512 W/m² | - |
| 1787911804 | 25.56° C | 50% | 1009.2 hPa | 0 mm | - | 589 W/m² | - |
| 1787911503 | 25.56° C | 50% | 1009.3 hPa | 0 mm | - | 594 W/m² | - |
| 1787911202 | 25.56° C | 51% | 1009.5 hPa | 0 mm | - | 581 W/m² | - |
| 1787910904 | 25.56° C | 52% | 1009.7 hPa | 0 mm | - | 577 W/m² | - |
| 1787910603 | 25.56° C | 52% | 1009.9 hPa | 0 mm | - | 571 W/m² | - |
* Rain latest hour (hover to see other rain measurements)
** Current wind speed in m/s (hover to see current wind gust speed)